Weather in Ladyzhyn

Ukraine / Vinnytsia Region     48°41′23″N   29°14′29″E
temp.,
°C
wind,
m/s
gust,
m/s
humid.,
%
clouds,
%
prec.,
mm/h
press.,
hPa
HPBL,
m
29 june, wed
wed2900:00+21n127355 1.6 101815
03:00+20n227611 1.9 101816
06:00+19nne23845 0.0 101846
09:00+26ne35657 0.0 1017424
12:00+31ene34426 0.0 10171901
15:00+32e333410 0.0 10162815
18:00+30s343848 0.0 10141364
21:00+20nnw468797 0.9 1017143
30 june, thu
thu3000:00+18nne228798 0.0 101617
03:00+17ese23925 0.1 101545
06:00+18nne228917 0.0 101532
09:00+23ne336936 0.0 1016439
12:00+28ne33465 0.0 10151219
15:00+30nne444178 0.0 10142439
18:00+27ene575499 0.0 1014689
21:00+23ene6106820 0.0 1015455
1 july, fri
fri100:00+19e38805 0.0 1017164
03:00+17ene358977 0.0 101896
06:00+16ene36910 0.0 1018145
09:00+23ene45650 0.0 1019786
12:00+27ene44390 0.0 10191720
15:00+28ene44290 0.0 10181893
18:00+28e45310 0.0 10181804
21:00+22e33510 0.0 101934
2 july, sat
sat200:00+18e345819 0.0 102055
03:00+16ese3565100 0.0 102170
06:00+16ese33712 0.0 102259
09:00+23se2348100 0.0 1022545
12:00+27e3333100 0.0 10221787
15:00+30ene222794 0.0 10212274
18:00+29ene433086 0.0 10201697
21:00+23e33461 0.0 102119
3 july, sun
sun300:00+19se486238 0.0 1021132
03:00+17s376023 0.0 1022110
06:00+17sse38536 0.0 1021134
09:00+25s463672 0.0 1020491
12:00+30ssw443018 0.0 10201568
15:00+31sw2235100 0.1 10182176
18:00+25w345852 1.1 1019361
21:00+22nnw226915 1.3 101818